Time,TemperatureF,DewpointF,PressureIn,WindDirection,WindDirectionDegrees,WindSpeedMPH,WindSpeedGustMPH,Humidity,HourlyPrecipIn,Conditions,Clouds,dailyrainin,SoftwareType,DateUTC
2013-05-03 00:03:00,38.6,29.7,30.41,NW,315,3.5,3.5,70,0.00,CLR,CLR,0.00,WeatherDisplay:10.37,2013-05-03 05:03:00,
2013-05-03 00:08:00,38.4,29.5,30.41,NNW,340,3.5,3.5,70,0.00,CLR,CLR,0.00,WeatherDisplay:10.37,2013-05-03 05:08:00,
2013-05-03 00:13:00,38.2,29.6,30.41,NW,326,3.5,3.5,71,0.00,CLR,CLR,0.00,WeatherDisplay:10.37,2013-05-03 05:13:00,
2013-05-03 00:18:00,38.1,29.5,30.41,NNW,336,3.0,3.0,71,0.00,CLR,CLR,0.00,WeatherDisplay:10.37,2013-05-03 05:18:00,
2013-05-03 00:23:00,37.9,29.7,30.41,NNW,335,2.3,2.3,72,0.00,CLR,CLR,0.00,WeatherDisplay:10.37,2013-05-03 05:23:00,
2013-05-03 00:28:00,37.7,29.5,30.40,NNW,330,2.3,2.3,72,0.00,CLR,CLR,0.00,WeatherDisplay:10.37,2013-05-03 05:28:00,
2013-05-03 00:33:00,37.5,29.3,30.40,NNW,327,3.5,3.5,72,0.00,CLR,CLR,0.00,WeatherDisplay:10.37,2013-05-03 05:33:00,
2013-05-03 00:38:00,37.3,29.4,30.40,NNW,329,1.2,1.2,73,0.00,CLR,CLR,0.00,WeatherDisplay:10.37,2013-05-03 05:38:00,
2013-05-03 00:43:00,37.2,29.3,30.40,NNW,329,2.3,2.3,73,0.00,CLR,CLR,0.00,WeatherDisplay:10.37,2013-05-03 05:43:00,
2013-05-03 00:48:00,37.1,29.2,30.40,NW,317,4.0,4.0,73,0.00,CLR,CLR,0.00,WeatherDisplay:10.37,2013-05-03 05:48:00,
2013-05-03 00:53:00,37.0,29.5,30.40,NNW,327,2.3,2.3,74,0.00,CLR,CLR,0.00,WeatherDisplay:10.37,2013-05-03 05:53:00,
2013-05-03 00:58:00,36.9,29.1,30.40,WNW,295,3.0,3.0,73,0.00,CLR,CLR,0.00,WeatherDisplay:10.37,2013-05-03 05:58:00,
2013-05-03 01:03:00,36.8,29.3,30.39,NNW,331,2.3,2.3,74,0.00,CLR,CLR,0.00,WeatherDisplay:10.37,2013-05-03 06:03:00,
2013-05-03 01:08:00,36.8,29.3,30.39,NNW,334,2.3,2.3,74,0.00,CLR,CLR,0.00,WeatherDisplay:10.37,2013-05-03 06:08:00,
2013-05-03 01:13:00,36.6,29.1,30.39,NNW,329,2.3,2.3,74,0.00,CLR,CLR,0.00,WeatherDisplay:10.37,2013-05-03 06:13:00,
2013-05-03 01:18:00,36.6,29.1,30.39,NW,325,2.3,2.3,74,0.00,CLR,CLR,0.00,WeatherDisplay:10.37,2013-05-03 06:18:00,
2013-05-03 01:23:00,36.5,29.0,30.39,NNW,334,3.5,3.5,74,0.00,CLR,CLR,0.00,WeatherDisplay:10.37,2013-05-03 06:23:00,
2013-05-03 01:28:00,36.4,28.9,30.38,NNW,342,3.5,3.5,74,0.00,CLR,CLR,0.00,WeatherDisplay:10.37,2013-05-03 06:28:00,
2013-05-03 01:33:00,36.3,28.8,30.38,NNW,338,2.3,2.3,74,0.00,CLR,CLR,0.00,WeatherDisplay:10.37,2013-05-03 06:33:00,
2013-05-03 01:38:00,36.3,28.8,30.38,NNW,327,2.3,2.3,74,0.00,CLR,CLR,0.00,WeatherDisplay:10.37,2013-05-03 06:38:00,
2013-05-03 01:43:00,36.2,28.7,30.38,NW,323,3.5,3.5,74,0.00,CLR,CLR,0.00,WeatherDisplay:10.37,2013-05-03 06:43:00,
2013-05-03 01:48:00,36.2,28.7,30.38,NW,318,3.5,3.5,74,0.00,CLR,CLR,0.00,WeatherDisplay:10.37,2013-05-03 06:48:00,
2013-05-03 01:53:00,36.2,28.7,30.38,North,360,4.0,4.0,74,0.00,CLR,CLR,0.00,WeatherDisplay:10.37,2013-05-03 06:53:00,
2013-05-03 01:58:00,36.2,28.7,30.37,NNW,336,4.0,4.0,74,0.00,CLR,CLR,0.00,WeatherDisplay:10.37,2013-05-03 06:58:00,
2013-05-03 02:03:00,36.2,28.7,30.37,NW,309,4.0,4.0,74,0.00,CLR,CLR,0.00,WeatherDisplay:10.37,2013-05-03 07:03:00,
2013-05-03 02:08:00,36.2,28.4,30.37,NNW,333,5.0,5.0,73,0.00,CLR,CLR,0.00,WeatherDisplay:10.37,2013-05-03 07:08:00,
2013-05-03 02:13:00,36.1,28.6,30.37,NNW,329,3.5,3.5,74,0.00,CLR,CLR,0.00,WeatherDisplay:10.37,2013-05-03 07:13:00,
2013-05-03 02:18:00,36.1,28.6,30.37,NNW,347,3.5,3.5,74,0.00,CLR,CLR,0.00,WeatherDisplay:10.37,2013-05-03 07:18:00,
2013-05-03 02:23:00,36.0,28.5,30.37,NNW,338,4.0,4.0,74,0.00,CLR,CLR,0.00,WeatherDisplay:10.37,2013-05-03 07:23:00,
2013-05-03 02:28:00,35.9,28.7,30.36,NW,315,3.5,3.5,75,0.00,CLR,CLR,0.00,WeatherDisplay:10.37,2013-05-03 07:28:00,
2013-05-03 02:33:00,35.7,28.6,30.36,NNE,13,3.0,3.0,75,0.00,CLR,CLR,0.00,WeatherDisplay:10.37,2013-05-03 07:33:00,
2013-05-03 02:38:00,35.6,28.5,30.36,NNW,330,4.0,4.0,75,0.00,CLR,CLR,0.00,WeatherDisplay:10.37,2013-05-03 07:38:00,
2013-05-03 02:43:00,35.5,28.4,30.36,NW,319,4.6,4.6,75,0.00,CLR,CLR,0.00,WeatherDisplay:10.37,2013-05-03 07:43:00,
2013-05-03 02:48:00,35.4,28.3,30.35,NNW,330,3.5,3.5,75,0.00,CLR,CLR,0.00,WeatherDisplay:10.37,2013-05-03 07:48:00,
2013-05-03 02:53:00,35.4,28.3,30.35,NW,312,3.5,3.5,75,0.00,CLR,CLR,0.00,WeatherDisplay:10.37,2013-05-03 07:53:00,
2013-05-03 02:58:00,35.3,28.5,30.35,NW,306,4.0,4.0,76,0.00,CLR,CLR,0.00,WeatherDisplay:10.37,2013-05-03 07:58:00,
2013-05-03 03:03:00,35.2,28.4,30.35,NNW,329,5.0,5.0,76,0.00,CLR,CLR,0.00,WeatherDisplay:10.37,2013-05-03 08:03:00,
2013-05-03 03:08:00,35.1,28.3,30.35,NNW,342,3.0,3.0,76,0.00,CLR,CLR,0.00,WeatherDisplay:10.37,2013-05-03 08:08:00,
2013-05-03 03:13:00,35.0,28.2,30.35,NNW,334,4.0,4.0,76,0.00,CLR,CLR,0.00,WeatherDisplay:10.37,2013-05-03 08:13:00,
2013-05-03 03:18:00,35.0,28.2,30.35,NNW,344,3.5,3.5,76,0.00,CLR,CLR,0.00,WeatherDisplay:10.37,2013-05-03 08:18:00,
2013-05-03 03:23:00,34.9,28.1,30.34,NNW,347,4.0,4.0,76,0.00,CLR,CLR,0.00,WeatherDisplay:10.37,2013-05-03 08:23:00,
2013-05-03 03:28:00,34.8,28.0,30.35,NNW,329,3.0,3.0,76,0.00,CLR,CLR,0.00,WeatherDisplay:10.37,2013-05-03 08:28:00,
2013-05-03 03:33:00,34.7,28.2,30.34,NNW,329,2.3,2.3,77,0.00,CLR,CLR,0.00,WeatherDisplay:10.37,2013-05-03 08:33:00,
2013-05-03 03:38:00,34.6,28.1,30.34,NNW,333,3.5,3.5,77,0.00,CLR,CLR,0.00,WeatherDisplay:10.37,2013-05-03 08:38:00,
2013-05-03 03:43:00,34.4,27.9,30.34,NNW,329,3.5,3.5,77,0.00,CLR,CLR,0.00,WeatherDisplay:10.37,2013-05-03 08:43:00,
2013-05-03 03:48:00,34.3,28.2,30.34,NNW,346,4.0,4.0,78,0.00,CLR,CLR,0.00,WeatherDisplay:10.37,2013-05-03 08:48:00,
2013-05-03 03:53:00,34.2,28.1,30.34,NW,325,4.0,4.0,78,0.00,CLR,CLR,0.00,WeatherDisplay:10.37,2013-05-03 08:53:00,
2013-05-03 03:58:00,34.2,28.1,30.34,NW,322,5.0,5.0,78,0.00,CLR,CLR,0.00,WeatherDisplay:10.37,2013-05-03 08:58:00,
2013-05-03 04:03:00,34.2,28.1,30.34,NNW,336,4.0,4.0,78,0.00,CLR,CLR,0.00,WeatherDisplay:10.37,2013-05-03 09:03:00,
2013-05-03 04:08:00,34.1,28.0,30.34,NW,304,4.0,4.0,78,0.00,CLR,CLR,0.00,WeatherDisplay:10.37,2013-05-03 09:08:00,
2013-05-03 04:13:00,34.1,27.6,30.34,NNW,338,4.0,4.0,77,0.00,CLR,CLR,0.00,WeatherDisplay:10.37,2013-05-03 09:13:00,
2013-05-03 04:18:00,34.0,27.5,30.34,NNW,344,3.5,3.5,77,0.00,CLR,CLR,0.00,WeatherDisplay:10.37,2013-05-03 09:18:00,
2013-05-03 04:23:00,34.0,27.9,30.33,NNW,338,3.5,3.5,78,0.00,CLR,CLR,0.00,WeatherDisplay:10.37,2013-05-03 09:23:00,
2013-05-03 04:28:00,33.9,27.8,30.33,NW,317,4.0,4.0,78,0.00,CLR,CLR,0.00,WeatherDisplay:10.37,2013-05-03 09:28:00,
2013-05-03 04:33:00,33.9,27.8,30.34,NNW,338,3.5,3.5,78,0.00,CLR,CLR,0.00,WeatherDisplay:10.37,2013-05-03 09:33:00,
2013-05-03 04:38:00,33.8,27.7,30.34,NW,311,4.0,4.0,78,0.00,CLR,CLR,0.00,WeatherDisplay:10.37,2013-05-03 09:38:00,
2013-05-03 04:43:00,33.7,27.6,30.34,NNW,338,3.5,3.5,78,0.00,CLR,CLR,0.00,WeatherDisplay:10.37,2013-05-03 09:43:00,
2013-05-03 04:48:00,33.6,27.5,30.34,NW,316,3.5,3.5,78,0.00,CLR,CLR,0.00,WeatherDisplay:10.37,2013-05-03 09:48:00,
2013-05-03 04:53:00,33.5,27.7,30.34,NNW,327,3.5,3.5,79,0.00,CLR,CLR,0.00,WeatherDisplay:10.37,2013-05-03 09:53:00,
2013-05-03 04:58:00,33.4,27.6,30.34,NNW,328,4.0,4.0,79,0.00,CLR,CLR,0.00,WeatherDisplay:10.37,2013-05-03 09:58:00,
2013-05-03 05:03:00,33.3,27.5,30.34,NNW,337,4.6,4.6,79,0.00,CLR,CLR,0.00,WeatherDisplay:10.37,2013-05-03 10:03:00,
2013-05-03 05:08:00,33.2,27.7,30.33,NW,319,6.0,6.0,80,0.00,CLR,CLR,0.00,WeatherDisplay:10.37,2013-05-03 10:08:00,
2013-05-03 05:13:00,33.1,27.6,30.33,NNW,331,3.0,3.0,80,0.00,CLR,CLR,0.00,WeatherDisplay:10.37,2013-05-03 10:13:00,
2013-05-03 05:18:00,33.0,27.5,30.33,NNW,340,4.6,4.6,80,0.00,CLR,CLR,0.00,WeatherDisplay:10.37,2013-05-03 10:18:00,
2013-05-03 05:23:00,32.9,27.4,30.33,NNW,334,4.0,4.0,80,0.00,CLR,CLR,0.00,WeatherDisplay:10.37,2013-05-03 10:23:00,
2013-05-03 05:28:00,32.8,27.6,30.33,NNW,335,2.3,2.3,81,0.00,CLR,CLR,0.00,WeatherDisplay:10.37,2013-05-03 10:28:00,
2013-05-03 05:33:00,32.7,27.5,30.33,North,350,4.0,4.0,81,0.00,CLR,CLR,0.00,WeatherDisplay:10.37,2013-05-03 10:33:00,
2013-05-03 05:38:00,32.7,27.5,30.33,NW,309,4.0,4.0,81,0.00,CLR,CLR,0.00,WeatherDisplay:10.37,2013-05-03 10:38:00,
2013-05-03 05:43:00,32.7,27.5,30.33,NNW,336,4.0,4.0,81,0.00,CLR,CLR,0.00,WeatherDisplay:10.37,2013-05-03 10:43:00,
2013-05-03 05:48:00,32.6,27.4,30.33,NNW,331,3.5,3.5,81,0.00,CLR,CLR,0.00,WeatherDisplay:10.37,2013-05-03 10:48:00,
2013-05-03 05:53:00,32.6,27.7,30.33,NNW,336,3.0,3.0,82,0.00,CLR,CLR,0.00,WeatherDisplay:10.37,2013-05-03 10:53:00,
2013-05-03 05:58:00,32.5,27.6,30.33,NNW,341,2.3,2.3,82,0.00,CLR,CLR,0.00,WeatherDisplay:10.37,2013-05-03 10:58:00,
2013-05-03 06:03:00,32.4,27.5,30.33,NNW,328,5.0,5.0,82,0.00,CLR,CLR,0.00,WeatherDisplay:10.37,2013-05-03 11:03:00,
2013-05-03 06:08:00,32.3,27.4,30.33,NNW,348,3.5,3.5,82,0.00,CLR,CLR,0.00,WeatherDisplay:10.37,2013-05-03 11:08:00,
2013-05-03 06:13:00,32.2,27.3,30.33,NW,317,4.0,4.0,82,0.00,CLR,CLR,0.00,WeatherDisplay:10.37,2013-05-03 11:13:00,
2013-05-03 06:18:00,32.1,27.2,30.33,West,277,2.3,2.3,82,0.00,CLR,CLR,0.00,WeatherDisplay:10.37,2013-05-03 11:18:00,
2013-05-03 06:23:00,32.1,27.5,30.32,NNW,330,3.5,3.5,83,0.00,CLR,CLR,0.00,WeatherDisplay:10.37,2013-05-03 11:23:00,
2013-05-03 06:28:00,32.0,27.4,30.32,WNW,294,4.0,4.0,83,0.00,CLR,CLR,0.00,WeatherDisplay:10.37,2013-05-03 11:28:00,
2013-05-03 06:33:00,32.0,27.4,30.33,NW,318,3.5,3.5,83,0.00,CLR,CLR,0.00,WeatherDisplay:10.37,2013-05-03 11:33:00,
2013-05-03 06:38:00,32.0,27.4,30.32,NNW,341,3.0,3.0,83,0.00,CLR,CLR,0.00,WeatherDisplay:10.37,2013-05-03 11:38:00,
2013-05-03 06:43:00,32.0,27.4,30.32,NW,313,3.5,3.5,83,0.00,CLR,CLR,0.00,WeatherDisplay:10.37,2013-05-03 11:43:00,
2013-05-03 06:48:00,32.1,27.5,30.32,NNW,334,4.0,4.0,83,0.00,CLR,CLR,0.00,WeatherDisplay:10.37,2013-05-03 11:48:00,
2013-05-03 06:53:00,32.1,27.5,30.32,NNW,346,3.5,3.5,83,0.00,CLR,CLR,0.00,WeatherDisplay:10.37,2013-05-03 11:53:00,
2013-05-03 06:58:00,32.2,27.6,30.32,NNW,342,4.0,4.0,83,0.00,CLR,CLR,0.00,WeatherDisplay:10.37,2013-05-03 11:58:00,
2013-05-03 07:03:00,32.3,27.4,30.32,NNW,344,4.6,4.6,82,0.00,CLR,CLR,0.00,WeatherDisplay:10.37,2013-05-03 12:03:00,
2013-05-03 07:08:00,32.4,27.8,30.32,NW,317,3.5,3.5,83,0.00,CLR,CLR,0.00,WeatherDisplay:10.37,2013-05-03 12:08:00,
2013-05-03 07:13:00,32.5,27.6,30.32,North,355,5.0,5.0,82,0.00,CLR,CLR,0.00,WeatherDisplay:10.37,2013-05-03 12:13:00,
2013-05-03 07:18:00,32.6,27.7,30.32,NW,306,2.3,2.3,82,0.00,CLR,CLR,0.00,WeatherDisplay:10.37,2013-05-03 12:18:00,
2013-05-03 07:23:00,32.8,27.6,30.32,NNW,336,4.0,4.0,81,0.00,CLR,CLR,0.00,WeatherDisplay:10.37,2013-05-03 12:23:00,
2013-05-03 07:28:00,33.0,28.1,30.32,West,270,9.2,9.2,82,0.00,CLR,CLR,0.00,WeatherDisplay:10.37,2013-05-03 12:28:00,
2013-05-03 07:33:00,33.3,28.1,30.33,NNW,340,6.0,6.0,81,0.00,CLR,CLR,0.00,WeatherDisplay:10.37,2013-05-03 12:33:00,
2013-05-03 07:38:00,33.6,28.1,30.32,NNW,327,5.0,5.0,80,0.00,CLR,CLR,0.00,WeatherDisplay:10.37,2013-05-03 12:38:00,
2013-05-03 07:43:00,33.9,28.4,30.33,WNW,290,4.6,4.6,80,0.00,CLR,CLR,0.00,WeatherDisplay:10.37,2013-05-03 12:43:00,
2013-05-03 07:48:00,34.2,28.4,30.32,North,350,8.1,8.1,79,0.00,CLR,CLR,0.00,WeatherDisplay:10.37,2013-05-03 12:48:00,
2013-05-03 07:53:00,34.6,28.4,30.32,NW,309,3.5,3.5,78,0.00,CLR,CLR,0.00,WeatherDisplay:10.37,2013-05-03 12:53:00,
2013-05-03 07:58:00,35.0,28.8,30.32,NNW,332,7.0,7.0,78,0.00,CLR,CLR,0.00,WeatherDisplay:10.37,2013-05-03 12:58:00,
2013-05-03 08:03:00,35.5,29.0,30.32,NW,325,6.0,6.0,77,0.00,CLR,CLR,0.00,WeatherDisplay:10.37,2013-05-03 13:03:00,
2013-05-03 08:08:00,35.8,29.0,30.31,NNW,335,6.0,6.0,76,0.00,CLR,CLR,0.00,WeatherDisplay:10.37,2013-05-03 13:08:00,
2013-05-03 08:13:00,36.2,29.0,30.31,NW,311,7.0,7.0,75,0.00,CLR,CLR,0.00,WeatherDisplay:10.37,2013-05-03 13:13:00,
2013-05-03 08:18:00,36.5,29.0,30.31,NW,322,8.1,8.1,74,0.00,CLR,CLR,0.00,WeatherDisplay:10.37,2013-05-03 13:18:00,
2013-05-03 08:23:00,36.8,29.3,30.31,NNW,341,6.0,6.0,74,0.00,CLR,CLR,0.00,WeatherDisplay:10.37,2013-05-03 13:23:00,
2013-05-03 08:28:00,37.0,29.1,30.30,NW,321,5.0,5.0,73,0.00,CLR,CLR,0.00,WeatherDisplay:10.37,2013-05-03 13:28:00,
2013-05-03 08:33:00,37.4,29.2,30.31,NNW,332,8.1,8.1,72,0.00,CLR,CLR,0.00,WeatherDisplay:10.37,2013-05-03 13:33:00,
2013-05-03 08:38:00,37.9,29.3,30.31,North,5,6.0,6.0,71,0.00,CLR,CLR,0.00,WeatherDisplay:10.37,2013-05-03 13:38:00,
2013-05-03 08:43:00,38.1,29.5,30.31,North,355,5.0,5.0,71,0.00,CLR,CLR,0.00,WeatherDisplay:10.37,2013-05-03 13:43:00,
2013-05-03 08:48:00,38.5,29.6,30.30,NW,325,8.1,8.1,70,0.00,CLR,CLR,0.00,WeatherDisplay:10.37,2013-05-03 13:48:00,
2013-05-03 08:53:00,38.8,29.5,30.30,WNW,298,6.9,6.9,69,0.00,CLR,CLR,0.00,WeatherDisplay:10.37,2013-05-03 13:53:00,
2013-05-03 08:58:00,39.3,30.7,30.30,North,360,4.0,4.0,71,0.00,CLR,CLR,0.00,WeatherDisplay:10.37,2013-05-03 13:58:00,
2013-05-03 09:03:00,40.1,30.0,30.30,NE,50,6.0,6.0,67,0.00,CLR,CLR,0.00,WeatherDisplay:10.37,2013-05-03 14:03:00,
2013-05-03 09:08:00,40.6,30.1,30.30,NW,321,6.0,6.0,66,0.00,CLR,CLR,0.00,WeatherDisplay:10.37,2013-05-03 14:08:00,
2013-05-03 09:13:00,41.0,30.5,30.30,NE,55,8.0,8.0,66,0.00,CLR,CLR,0.00,WeatherDisplay:10.37,2013-05-03 14:13:00,
2013-05-03 09:18:00,41.1,30.6,30.30,NNW,331,3.5,3.5,66,0.00,CLR,CLR,0.00,WeatherDisplay:10.37,2013-05-03 14:18:00,
2013-05-03 09:23:00,41.1,30.2,30.30,NE,51,5.0,5.0,65,0.00,CLR,CLR,0.00,WeatherDisplay:10.37,2013-05-03 14:23:00,
2013-05-03 09:28:00,41.4,30.9,30.29,NW,325,7.0,7.0,66,0.00,CLR,CLR,0.00,WeatherDisplay:10.37,2013-05-03 14:28:00,
2013-05-03 09:33:00,41.5,30.2,30.29,NNW,333,9.2,9.2,64,0.00,CLR,CLR,0.00,WeatherDisplay:10.37,2013-05-03 14:33:00,
2013-05-03 09:38:00,41.5,30.2,30.29,NNE,22,9.2,9.2,64,0.00,CLR,CLR,0.00,WeatherDisplay:10.37,2013-05-03 14:38:00,
2013-05-03 09:43:00,41.6,30.7,30.28,North,351,9.2,9.2,65,0.00,CLR,CLR,0.00,WeatherDisplay:10.37,2013-05-03 14:43:00,
2013-05-03 09:48:00,41.9,30.6,30.29,NW,309,6.0,6.0,64,0.00,CLR,CLR,0.00,WeatherDisplay:10.37,2013-05-03 14:48:00,
2013-05-03 09:53:00,42.1,30.8,30.28,NNW,345,9.2,9.2,64,0.00,CLR,CLR,0.00,WeatherDisplay:10.37,2013-05-03 14:53:00,
2013-05-03 09:58:00,42.1,30.4,30.28,North,355,11.5,11.5,63,0.00,CLR,CLR,0.00,WeatherDisplay:10.37,2013-05-03 14:58:00,
2013-05-03 10:03:00,42.3,31.0,30.28,NW,321,6.0,6.0,64,0.00,CLR,CLR,0.00,WeatherDisplay:10.37,2013-05-03 15:03:00,
2013-05-03 10:08:00,42.2,30.5,30.27,NNW,338,9.0,9.0,63,0.00,CLR,CLR,0.00,WeatherDisplay:10.37,2013-05-03 15:08:00,
2013-05-03 10:13:00,42.4,31.1,30.27,NNW,347,9.0,9.0,64,0.00,CLR,CLR,0.00,WeatherDisplay:10.37,2013-05-03 15:13:00,
2013-05-03 10:18:00,42.7,31.0,30.27,NNE,22,11.5,11.5,63,0.00,CLR,CLR,0.00,WeatherDisplay:10.37,2013-05-03 15:18:00,
2013-05-03 10:23:00,43.0,30.9,30.26,NNW,336,11.5,11.5,62,0.00,CLR,CLR,0.00,WeatherDisplay:10.37,2013-05-03 15:23:00,
2013-05-03 10:28:00,42.9,30.0,30.26,NNW,331,10.4,10.4,60,0.00,CLR,CLR,0.00,WeatherDisplay:10.37,2013-05-03 15:28:00,
2013-05-03 10:33:00,43.0,30.5,30.25,NNW,331,8.1,8.1,61,0.00,CLR,CLR,0.00,WeatherDisplay:10.37,2013-05-03 15:33:00,
2013-05-03 10:38:00,43.1,30.1,30.25,NNW,337,9.2,9.2,60,0.00,CLR,CLR,0.00,WeatherDisplay:10.37,2013-05-03 15:38:00,
2013-05-03 10:43:00,43.4,30.8,30.25,NNW,327,6.0,6.0,61,0.00,CLR,CLR,0.00,WeatherDisplay:10.37,2013-05-03 15:43:00,
2013-05-03 10:48:00,44.2,31.6,30.25,NW,323,9.2,9.2,61,0.00,CLR,CLR,0.00,WeatherDisplay:10.37,2013-05-03 15:48:00,
2013-05-03 10:53:00,44.4,31.0,30.24,NW,325,14.0,14.0,59,0.00,CLR,CLR,0.00,WeatherDisplay:10.37,2013-05-03 15:53:00,
2013-05-03 10:58:00,44.3,30.4,30.24,NW,317,11.5,11.5,58,0.00,CLR,CLR,0.00,WeatherDisplay:10.37,2013-05-03 15:58:00,
2013-05-03 11:03:00,44.2,30.8,30.24,NNW,338,9.2,9.2,59,0.00,CLR,CLR,0.00,WeatherDisplay:10.37,2013-05-03 16:03:00,
2013-05-03 11:08:00,45.0,30.2,30.24,WNW,300,10.4,10.4,56,0.00,CLR,CLR,0.00,WeatherDisplay:10.37,2013-05-03 16:08:00,
2013-05-03 11:13:00,45.1,30.8,30.23,NNW,327,8.1,8.1,57,0.00,CLR,CLR,0.00,WeatherDisplay:10.37,2013-05-03 16:13:00,
2013-05-03 11:18:00,45.2,30.9,30.23,West,268,11.5,11.5,57,0.00,CLR,CLR,0.00,WeatherDisplay:10.37,2013-05-03 16:18:00,
2013-05-03 11:23:00,45.3,31.4,30.23,NNW,339,10.4,10.4,58,0.00,CLR,CLR,0.00,WeatherDisplay:10.37,2013-05-03 16:23:00,
2013-05-03 11:28:00,45.8,31.9,30.23,NW,318,9.2,9.2,58,0.00,CLR,CLR,0.00,WeatherDisplay:10.37,2013-05-03 16:28:00,
2013-05-03 11:33:00,46.2,32.2,30.22,NW,324,8.1,8.1,58,0.00,CLR,CLR,0.00,WeatherDisplay:10.37,2013-05-03 16:33:00,
2013-05-03 11:38:00,46.3,31.4,30.22,NNE,19,13.0,13.0,56,0.00,CLR,CLR,0.00,WeatherDisplay:10.37,2013-05-03 16:38:00,
2013-05-03 11:43:00,46.1,30.4,30.23,NNW,348,9.2,9.2,54,0.00,CLR,CLR,0.00,WeatherDisplay:10.37,2013-05-03 16:43:00,
2013-05-03 11:48:00,46.3,31.4,30.22,NNE,33,10.4,10.4,56,0.00,CLR,CLR,0.00,WeatherDisplay:10.37,2013-05-03 16:48:00,
2013-05-03 11:53:00,46.6,32.6,30.23,North,355,11.5,11.5,58,0.00,CLR,CLR,0.00,WeatherDisplay:10.37,2013-05-03 16:53:00,
2013-05-03 11:58:00,46.6,31.3,30.23,NNW,336,11.0,11.0,55,0.00,CLR,CLR,0.00,WeatherDisplay:10.37,2013-05-03 16:58:00,
2013-05-03 12:03:00,47.2,32.3,30.22,NNE,17,5.0,5.0,56,0.00,CLR,CLR,0.00,WeatherDisplay:10.37,2013-05-03 17:03:00,
2013-05-03 12:08:00,47.7,31.9,30.22,NNW,341,9.2,9.2,54,0.00,CLR,CLR,0.00,WeatherDisplay:10.37,2013-05-03 17:08:00,
2013-05-03 12:13:00,47.4,31.1,30.22,NNE,22,6.0,6.0,53,0.00,CLR,CLR,0.00,WeatherDisplay:10.37,2013-05-03 17:13:00,
2013-05-03 12:18:00,47.7,31.4,30.21,NE,34,9.2,9.2,53,0.00,CLR,CLR,0.00,WeatherDisplay:10.37,2013-05-03 17:18:00,
2013-05-03 12:23:00,47.4,29.7,30.21,NW,326,11.5,11.5,50,0.00,CLR,CLR,0.00,WeatherDisplay:10.37,2013-05-03 17:23:00,
2013-05-03 12:28:00,47.4,31.6,30.20,NNW,346,8.1,8.1,54,0.00,CLR,CLR,0.00,WeatherDisplay:10.37,2013-05-03 17:28:00,
2013-05-03 12:33:00,47.9,31.1,30.20,WNW,290,10.4,10.4,52,0.00,CLR,CLR,0.00,WeatherDisplay:10.37,2013-05-03 17:33:00,
2013-05-03 12:38:00,47.9,31.6,30.20,North,5,9.2,9.2,53,0.00,CLR,CLR,0.00,WeatherDisplay:10.37,2013-05-03 17:38:00,
2013-05-03 12:43:00,47.9,30.6,30.20,NNW,347,8.1,8.1,51,0.00,CLR,CLR,0.00,WeatherDisplay:10.37,2013-05-03 17:43:00,
2013-05-03 12:48:00,47.8,30.0,30.20,West,278,12.7,12.7,50,0.00,CLR,CLR,0.00,WeatherDisplay:10.37,2013-05-03 17:48:00,
2013-05-03 12:53:00,47.6,31.3,30.19,NNW,337,14.0,14.0,53,0.00,CLR,CLR,0.00,WeatherDisplay:10.37,2013-05-03 17:53:00,
2013-05-03 12:58:00,48.5,31.7,30.19,NNE,28,17.3,17.3,52,0.00,CLR,CLR,0.00,WeatherDisplay:10.37,2013-05-03 17:58:00,
2013-05-03 13:03:00,49.0,31.6,30.19,NNW,335,14.0,14.0,51,0.00,CLR,CLR,0.00,WeatherDisplay:10.37,2013-05-03 18:03:00,
2013-05-03 13:08:00,49.4,31.5,30.18,North,360,14.0,14.0,50,0.00,CLR,CLR,0.00,WeatherDisplay:10.37,2013-05-03 18:08:00,
2013-05-03 13:13:00,49.6,31.2,30.18,NW,308,11.5,11.5,49,0.00,CLR,CLR,0.00,WeatherDisplay:10.37,2013-05-03 18:13:00,
2013-05-03 13:18:00,49.8,30.9,30.17,NW,315,12.0,12.0,48,0.00,CLR,CLR,0.00,WeatherDisplay:10.37,2013-05-03 18:18:00,
2013-05-03 13:23:00,50.1,30.6,30.17,NNE,13,14.0,14.0,47,0.00,CLR,CLR,0.00,WeatherDisplay:10.37,2013-05-03 18:23:00,
2013-05-03 13:28:00,50.4,31.4,30.17,North,355,11.5,11.5,48,0.00,CLR,CLR,0.00,WeatherDisplay:10.37,2013-05-03 18:28:00,
2013-05-03 13:33:00,50.8,31.8,30.16,NW,320,7.0,7.0,48,0.00,CLR,CLR,0.00,WeatherDisplay:10.37,2013-05-03 18:33:00,
2013-05-03 13:38:00,50.9,30.3,30.17,NNE,14,10.4,10.4,45,0.00,CLR,CLR,0.00,WeatherDisplay:10.37,2013-05-03 18:38:00,
2013-05-03 13:43:00,50.8,30.7,30.16,NNW,336,12.7,12.7,46,0.00,CLR,CLR,0.00,WeatherDisplay:10.37,2013-05-03 18:43:00,
2013-05-03 13:48:00,51.0,29.8,30.17,NNW,333,14.0,14.0,44,0.00,CLR,CLR,0.00,WeatherDisplay:10.37,2013-05-03 18:48:00,
2013-05-03 13:53:00,50.9,30.8,30.16,NW,317,11.5,11.5,46,0.00,CLR,CLR,0.00,WeatherDisplay:10.37,2013-05-03 18:53:00,
2013-05-03 13:58:00,51.0,30.4,30.16,West,259,9.2,9.2,45,0.00,CLR,CLR,0.00,WeatherDisplay:10.37,2013-05-03 18:58:00,
2013-05-03 14:03:00,51.5,32.4,30.15,NNW,342,6.0,6.0,48,0.00,CLR,CLR,0.00,WeatherDisplay:10.37,2013-05-03 19:03:00,
2013-05-03 14:08:00,52.3,30.4,30.15,North,350,7.0,7.0,43,0.00,CLR,CLR,0.00,WeatherDisplay:10.37,2013-05-03 19:08:00,
2013-05-03 14:13:00,52.4,31.1,30.15,NNW,338,5.0,5.0,44,0.00,CLR,CLR,0.00,WeatherDisplay:10.37,2013-05-03 19:13:00,
2013-05-03 14:18:00,52.4,30.5,30.15,NNE,32,11.0,11.0,43,0.00,CLR,CLR,0.00,WeatherDisplay:10.37,2013-05-03 19:18:00,
2013-05-03 14:23:00,52.7,30.8,30.14,North,360,8.1,8.1,43,0.00,CLR,CLR,0.00,WeatherDisplay:10.37,2013-05-03 19:23:00,
2013-05-03 14:28:00,52.9,30.4,30.14,NW,320,12.0,12.0,42,0.00,CLR,CLR,0.00,WeatherDisplay:10.37,2013-05-03 19:28:00,
2013-05-03 14:33:00,52.9,29.8,30.14,West,277,9.2,9.2,41,0.00,CLR,CLR,0.00,WeatherDisplay:10.37,2013-05-03 19:33:00,
2013-05-03 14:38:00,52.8,30.3,30.14,WNW,302,8.0,8.0,42,0.00,CLR,CLR,0.00,WeatherDisplay:10.37,2013-05-03 19:38:00,
2013-05-03 14:43:00,52.5,29.5,30.14,North,349,12.7,12.7,41,0.00,CLR,CLR,0.00,WeatherDisplay:10.37,2013-05-03 19:43:00,
2013-05-03 14:48:00,52.9,30.4,30.14,NW,320,11.0,11.0,42,0.00,CLR,CLR,0.00,WeatherDisplay:10.37,2013-05-03 19:48:00,
2013-05-03 14:53:00,53.0,31.6,30.13,NNE,12,9.2,9.2,44,0.00,CLR,CLR,0.00,WeatherDisplay:10.37,2013-05-03 19:53:00,
2013-05-03 14:58:00,53.8,31.2,30.13,North,5,10.4,10.4,42,0.00,CLR,CLR,0.00,WeatherDisplay:10.37,2013-05-03 19:58:00,
2013-05-03 15:03:00,53.6,30.4,30.13,NNW,335,10.0,10.0,41,0.00,CLR,CLR,0.00,WeatherDisplay:10.37,2013-05-03 20:03:00,
2013-05-03 15:08:00,53.3,29.6,30.12,North,355,9.2,9.2,40,0.00,CLR,CLR,0.00,WeatherDisplay:10.37,2013-05-03 20:08:00,
2013-05-03 15:13:00,53.2,30.7,30.12,East,81,6.0,6.0,42,0.00,CLR,CLR,0.00,WeatherDisplay:10.37,2013-05-03 20:13:00,
2013-05-03 15:18:00,53.0,29.3,30.12,NW,309,12.0,12.0,40,0.00,CLR,CLR,0.00,WeatherDisplay:10.37,2013-05-03 20:18:00,
2013-05-03 15:23:00,52.6,30.1,30.12,North,360,12.0,12.0,42,0.00,CLR,CLR,0.00,WeatherDisplay:10.37,2013-05-03 20:23:00,
2013-05-03 15:28:00,52.8,30.3,30.12,NNW,348,10.0,10.0,42,0.00,CLR,CLR,0.00,WeatherDisplay:10.37,2013-05-03 20:28:00,
2013-05-03 15:33:00,53.0,29.9,30.11,North,355,7.0,7.0,41,0.00,CLR,CLR,0.00,WeatherDisplay:10.37,2013-05-03 20:33:00,
2013-05-03 15:38:00,52.7,30.2,30.12,NNW,334,11.0,11.0,42,0.00,CLR,CLR,0.00,WeatherDisplay:10.37,2013-05-03 20:38:00,
2013-05-03 15:43:00,52.9,29.8,30.11,NE,55,8.1,8.1,41,0.00,CLR,CLR,0.00,WeatherDisplay:10.37,2013-05-03 20:43:00,
2013-05-03 15:48:00,53.1,29.4,30.11,NNW,334,10.4,10.4,40,0.00,CLR,CLR,0.00,WeatherDisplay:10.37,2013-05-03 20:48:00,
2013-05-03 15:53:00,52.9,30.4,30.11,ENE,57,5.8,5.8,42,0.00,CLR,CLR,0.00,WeatherDisplay:10.37,2013-05-03 20:53:00,
2013-05-03 15:58:00,52.8,29.7,30.10,NNW,344,12.7,12.7,41,0.00,CLR,CLR,0.00,WeatherDisplay:10.37,2013-05-03 20:58:00,
2013-05-03 16:03:00,52.8,29.7,30.10,NNW,328,10.0,10.0,41,0.00,CLR,CLR,0.00,WeatherDisplay:10.37,2013-05-03 21:03:00,
2013-05-03 16:08:00,52.7,29.6,30.10,NNW,335,6.0,6.0,41,0.00,CLR,CLR,0.00,WeatherDisplay:10.37,2013-05-03 21:08:00,
2013-05-03 16:13:00,52.8,30.3,30.10,NNW,348,11.5,11.5,42,0.00,CLR,CLR,0.00,WeatherDisplay:10.37,2013-05-03 21:13:00,
2013-05-03 16:18:00,53.2,30.7,30.10,NNW,339,10.4,10.4,42,0.00,CLR,CLR,0.00,WeatherDisplay:10.37,2013-05-03 21:18:00,
2013-05-03 16:23:00,53.4,30.3,30.09,North,360,10.0,10.0,41,0.00,CLR,CLR,0.00,WeatherDisplay:10.37,2013-05-03 21:23:00,
2013-05-03 16:28:00,53.4,30.3,30.09,NNW,334,8.1,8.1,41,0.00,CLR,CLR,0.00,WeatherDisplay:10.37,2013-05-03 21:28:00,
2013-05-03 16:33:00,53.7,29.9,30.09,NNE,30,13.0,13.0,40,0.00,CLR,CLR,0.00,WeatherDisplay:10.37,2013-05-03 21:33:00,
2013-05-03 16:38:00,53.7,29.3,30.09,NW,325,11.5,11.5,39,0.00,CLR,CLR,0.00,WeatherDisplay:10.37,2013-05-03 21:38:00,
2013-05-03 16:43:00,53.3,28.3,30.09,NNW,341,14.0,14.0,38,0.00,CLR,CLR,0.00,WeatherDisplay:10.37,2013-05-03 21:43:00,
2013-05-03 16:48:00,52.7,28.4,30.09,NW,315,11.5,11.5,39,0.00,CLR,CLR,0.00,WeatherDisplay:10.37,2013-05-03 21:48:00,
2013-05-03 16:53:00,51.9,28.9,30.09,North,5,9.2,9.2,41,0.00,CLR,CLR,0.00,WeatherDisplay:10.37,2013-05-03 21:53:00,
2013-05-03 16:58:00,51.6,28.0,30.09,East,87,9.2,9.2,40,0.00,CLR,CLR,0.00,WeatherDisplay:10.37,2013-05-03 21:58:00,
2013-05-03 17:03:00,51.5,28.6,30.09,North,5,10.0,10.0,41,0.00,CLR,CLR,0.00,WeatherDisplay:10.37,2013-05-03 22:03:00,
2013-05-03 17:08:00,51.4,28.5,30.09,North,355,10.4,10.4,41,0.00,CLR,CLR,0.00,WeatherDisplay:10.37,2013-05-03 22:08:00,
2013-05-03 17:13:00,51.2,28.3,30.08,NW,309,10.4,10.4,41,0.00,CLR,CLR,0.00,WeatherDisplay:10.37,2013-05-03 22:13:00,
2013-05-03 17:18:00,51.3,29.0,30.08,NW,305,10.0,10.0,42,0.00,CLR,CLR,0.00,WeatherDisplay:10.37,2013-05-03 22:18:00,
2013-05-03 17:23:00,51.5,29.1,30.08,NNW,347,9.2,9.2,42,0.00,CLR,CLR,0.00,WeatherDisplay:10.37,2013-05-03 22:23:00,
2013-05-03 17:28:00,51.7,29.3,30.08,West,281,8.1,8.1,42,0.00,CLR,CLR,0.00,WeatherDisplay:10.37,2013-05-03 22:28:00,
2013-05-03 17:33:00,51.7,29.3,30.08,North,355,8.1,8.1,42,0.00,CLR,CLR,0.00,WeatherDisplay:10.37,2013-05-03 22:33:00,
2013-05-03 17:38:00,51.5,29.1,30.08,NNE,31,8.1,8.1,42,0.00,CLR,CLR,0.00,WeatherDisplay:10.37,2013-05-03 22:38:00,
2013-05-03 17:43:00,51.5,29.1,30.08,North,5,4.6,4.6,42,0.00,CLR,CLR,0.00,WeatherDisplay:10.37,2013-05-03 22:43:00,
2013-05-03 17:48:00,51.5,28.6,30.08,NNW,339,11.5,11.5,41,0.00,CLR,CLR,0.00,WeatherDisplay:10.37,2013-05-03 22:48:00,
2013-05-03 17:53:00,51.3,29.0,30.08,WNW,294,7.0,7.0,42,0.00,CLR,CLR,0.00,WeatherDisplay:10.37,2013-05-03 22:53:00,
2013-05-03 17:58:00,51.3,28.4,30.08,NNW,336,9.2,9.2,41,0.00,CLR,CLR,0.00,WeatherDisplay:10.37,2013-05-03 22:58:00,
2013-05-03 18:03:00,51.2,28.3,30.08,NNE,20,6.0,6.0,41,0.00,CLR,CLR,0.00,WeatherDisplay:10.37,2013-05-03 23:03:00,
2013-05-03 18:08:00,51.0,29.3,30.08,North,360,5.0,5.0,43,0.00,CLR,CLR,0.00,WeatherDisplay:10.37,2013-05-03 23:08:00,
2013-05-03 18:13:00,50.8,29.1,30.08,NW,325,8.0,8.0,43,0.00,CLR,CLR,0.00,WeatherDisplay:10.37,2013-05-03 23:13:00,
2013-05-03 18:18:00,50.6,28.9,30.08,North,5,5.0,5.0,43,0.00,CLR,CLR,0.00,WeatherDisplay:10.37,2013-05-03 23:18:00,
2013-05-03 18:23:00,50.5,29.4,30.08,North,5,4.0,4.0,44,0.00,CLR,CLR,0.00,WeatherDisplay:10.37,2013-05-03 23:23:00,
2013-05-03 18:28:00,50.4,29.8,30.07,North,5,3.5,3.5,45,0.00,CLR,CLR,0.00,WeatherDisplay:10.37,2013-05-03 23:28:00,
2013-05-03 18:33:00,50.4,29.3,30.07,ENE,57,6.0,6.0,44,0.00,CLR,CLR,0.00,WeatherDisplay:10.37,2013-05-03 23:33:00,
2013-05-03 18:38:00,50.2,29.7,30.07,NNW,346,8.0,8.0,45,0.00,CLR,CLR,0.00,WeatherDisplay:10.37,2013-05-03 23:38:00,
2013-05-03 18:43:00,50.0,28.9,30.07,NNW,332,5.0,5.0,44,0.00,CLR,CLR,0.00,WeatherDisplay:10.37,2013-05-03 23:43:00,
2013-05-03 18:48:00,49.8,28.7,30.07,NE,49,3.5,3.5,44,0.00,CLR,CLR,0.00,WeatherDisplay:10.37,2013-05-03 23:48:00,
2013-05-03 18:53:00,49.6,29.1,30.07,North,349,5.8,5.8,45,0.00,CLR,CLR,0.00,WeatherDisplay:10.37,2013-05-03 23:53:00,
2013-05-03 18:58:00,49.3,28.8,30.07,North,5,5.0,5.0,45,0.00,CLR,CLR,0.00,WeatherDisplay:10.37,2013-05-03 23:58:00,
2013-05-03 19:04:00,49.1,28.7,30.07,North,355,9.2,9.2,45,0.00,CLR,CLR,0.00,WeatherDisplay:10.37,2013-05-04 00:04:00,
2013-05-03 19:09:00,49.2,29.3,30.06,NNW,347,5.0,5.0,46,0.00,CLR,CLR,0.00,WeatherDisplay:10.37,2013-05-04 00:09:00,
2013-05-03 19:14:00,49.3,29.9,30.06,NNW,327,5.0,5.0,47,0.00,CLR,CLR,0.00,WeatherDisplay:10.37,2013-05-04 00:14:00,
2013-05-03 19:19:00,49.4,29.5,30.06,NNW,348,5.0,5.0,46,0.00,CLR,CLR,0.00,WeatherDisplay:10.37,2013-05-04 00:19:00,
2013-05-03 19:24:00,49.3,29.4,30.06,WNW,288,5.0,5.0,46,0.00,CLR,CLR,0.00,WeatherDisplay:10.37,2013-05-04 00:24:00,
2013-05-03 19:29:00,49.2,29.3,30.06,NNW,340,3.5,3.5,46,0.00,CLR,CLR,0.00,WeatherDisplay:10.37,2013-05-04 00:29:00,
2013-05-03 19:34:00,49.1,29.2,30.06,NNW,333,3.5,3.5,46,0.00,CLR,CLR,0.00,WeatherDisplay:10.37,2013-05-04 00:34:00,
2013-05-03 19:39:00,49.2,29.8,30.06,East,84,5.0,5.0,47,0.00,CLR,CLR,0.00,WeatherDisplay:10.37,2013-05-04 00:39:00,
2013-05-03 19:44:00,49.1,29.7,30.06,NNE,19,4.0,4.0,47,0.00,CLR,CLR,0.00,WeatherDisplay:10.37,2013-05-04 00:44:00,
2013-05-03 19:49:00,49.0,30.1,30.06,NNW,342,4.0,4.0,48,0.00,CLR,CLR,0.00,WeatherDisplay:10.37,2013-05-04 00:49:00,
2013-05-03 19:54:00,48.9,32.0,30.06,NNE,13,3.0,3.0,52,0.00,CLR,CLR,0.00,WeatherDisplay:10.37,2013-05-04 00:54:00,
2013-05-03 19:59:00,48.7,32.8,30.06,NNE,33,4.0,4.0,54,0.00,CLR,CLR,0.00,WeatherDisplay:10.37,2013-05-04 00:59:00,
2013-05-03 20:04:00,48.4,32.5,30.06,NNE,32,4.0,4.0,54,0.00,CLR,CLR,0.00,WeatherDisplay:10.37,2013-05-04 01:04:00,
2013-05-03 20:09:00,48.1,31.8,30.06,NE,40,4.0,4.0,53,0.00,CLR,CLR,0.00,WeatherDisplay:10.37,2013-05-04 01:09:00,
2013-05-03 20:14:00,47.9,32.5,30.06,NE,55,2.3,2.3,55,0.00,CLR,CLR,0.00,WeatherDisplay:10.37,2013-05-04 01:14:00,
2013-05-03 20:19:00,47.7,33.2,30.07,NE,34,3.0,3.0,57,0.00,CLR,CLR,0.00,WeatherDisplay:10.37,2013-05-04 01:19:00,
2013-05-03 20:24:00,47.4,33.4,30.07,North,360,5.0,5.0,58,0.00,CLR,CLR,0.00,WeatherDisplay:10.37,2013-05-04 01:24:00,
2013-05-03 20:29:00,47.0,33.0,30.07,NE,35,3.5,3.5,58,0.00,CLR,CLR,0.00,WeatherDisplay:10.37,2013-05-04 01:29:00,
2013-05-03 20:34:00,46.6,33.0,30.07,NE,43,3.5,3.5,59,0.00,CLR,CLR,0.00,WeatherDisplay:10.37,2013-05-04 01:34:00,
2013-05-03 20:39:00,46.2,32.7,30.07,North,5,4.0,4.0,59,0.00,CLR,CLR,0.00,WeatherDisplay:10.37,2013-05-04 01:39:00,
2013-05-03 20:44:00,46.0,32.0,30.06,North,10,3.5,3.5,58,0.00,CLR,CLR,0.00,WeatherDisplay:10.37,2013-05-04 01:44:00,
2013-05-03 20:49:00,45.8,32.3,30.06,North,5,3.0,3.0,59,0.00,CLR,CLR,0.00,WeatherDisplay:10.37,2013-05-04 01:49:00,
2013-05-03 20:54:00,45.7,32.6,30.06,NNE,21,2.0,2.0,60,0.00,CLR,CLR,0.00,WeatherDisplay:10.37,2013-05-04 01:54:00,
2013-05-03 20:59:00,45.6,32.5,30.06,NE,53,3.5,3.5,60,0.00,CLR,CLR,0.00,WeatherDisplay:10.37,2013-05-04 01:59:00,
2013-05-03 21:04:00,45.4,32.3,30.05,NNE,13,3.5,3.5,60,0.00,CLR,CLR,0.00,WeatherDisplay:10.37,2013-05-04 02:04:00,
2013-05-03 21:09:00,45.3,32.2,30.06,North,350,2.3,2.3,60,0.00,CLR,CLR,0.00,WeatherDisplay:10.37,2013-05-04 02:09:00,
2013-05-03 21:14:00,45.2,32.1,30.06,NNW,338,3.5,3.5,60,0.00,CLR,CLR,0.00,WeatherDisplay:10.37,2013-05-04 02:14:00,
2013-05-03 21:19:00,45.2,31.7,30.06,NNW,342,4.0,4.0,59,0.00,CLR,CLR,0.00,WeatherDisplay:10.37,2013-05-04 02:19:00,
2013-05-03 21:24:00,45.3,31.8,30.06,North,355,3.5,3.5,59,0.00,CLR,CLR,0.00,WeatherDisplay:10.37,2013-05-04 02:24:00,
2013-05-03 21:29:00,45.3,31.4,30.05,NNW,336,4.6,4.6,58,0.00,CLR,CLR,0.00,WeatherDisplay:10.37,2013-05-04 02:29:00,
2013-05-03 21:34:00,45.3,31.4,30.05,NNW,336,2.3,2.3,58,0.00,CLR,CLR,0.00,WeatherDisplay:10.37,2013-05-04 02:34:00,
2013-05-03 21:39:00,45.3,31.0,30.05,NNW,342,6.9,6.9,57,0.00,CLR,CLR,0.00,WeatherDisplay:10.37,2013-05-04 02:39:00,
2013-05-03 21:44:00,45.3,31.0,30.05,NW,326,4.0,4.0,57,0.00,CLR,CLR,0.00,WeatherDisplay:10.37,2013-05-04 02:44:00,
2013-05-03 21:49:00,45.2,30.9,30.05,NW,309,4.0,4.0,57,0.00,CLR,CLR,0.00,WeatherDisplay:10.37,2013-05-04 02:49:00,
2013-05-03 21:54:00,45.2,30.9,30.05,NNW,337,8.1,8.1,57,0.00,CLR,CLR,0.00,WeatherDisplay:10.37,2013-05-04 02:54:00,
2013-05-03 21:59:00,45.1,30.8,30.05,NNE,17,3.5,3.5,57,0.00,CLR,CLR,0.00,WeatherDisplay:10.37,2013-05-04 02:59:00,
2013-05-03 22:04:00,45.0,31.1,30.05,NNE,17,3.5,3.5,58,0.00,CLR,CLR,0.00,WeatherDisplay:10.37,2013-05-04 03:04:00,
2013-05-03 22:09:00,44.9,31.8,30.06,NNE,31,3.5,3.5,60,0.00,CLR,CLR,0.00,WeatherDisplay:10.37,2013-05-04 03:09:00,
2013-05-03 22:14:00,44.7,31.7,30.06,ENE,62,3.5,3.5,60,0.00,CLR,CLR,0.00,WeatherDisplay:10.37,2013-05-04 03:14:00,
2013-05-03 22:19:00,44.5,31.9,30.06,NNE,32,3.5,3.5,61,0.00,CLR,CLR,0.00,WeatherDisplay:10.37,2013-05-04 03:19:00,
2013-05-03 22:24:00,44.2,32.0,30.06,North,5,5.0,5.0,62,0.00,CLR,CLR,0.00,WeatherDisplay:10.37,2013-05-04 03:24:00,
2013-05-03 22:29:00,44.1,31.9,30.07,NNW,346,4.0,4.0,62,0.00,CLR,CLR,0.00,WeatherDisplay:10.37,2013-05-04 03:29:00,
2013-05-03 22:34:00,43.9,31.3,30.07,NNE,12,4.0,4.0,61,0.00,CLR,CLR,0.00,WeatherDisplay:10.37,2013-05-04 03:34:00,
2013-05-03 22:39:00,43.7,30.7,30.07,North,360,4.0,4.0,60,0.00,CLR,CLR,0.00,WeatherDisplay:10.37,2013-05-04 03:39:00,
2013-05-03 22:44:00,43.6,30.6,30.07,NNE,24,3.5,3.5,60,0.00,CLR,CLR,0.00,WeatherDisplay:10.37,2013-05-04 03:44:00,
2013-05-03 22:49:00,43.4,30.8,30.07,NE,52,5.0,5.0,61,0.00,CLR,CLR,0.00,WeatherDisplay:10.37,2013-05-04 03:49:00,
2013-05-03 22:54:00,43.3,30.7,30.07,NNE,15,3.5,3.5,61,0.00,CLR,CLR,0.00,WeatherDisplay:10.37,2013-05-04 03:54:00,
2013-05-03 22:59:00,43.1,30.6,30.07,North,360,3.5,3.5,61,0.00,CLR,CLR,0.00,WeatherDisplay:10.37,2013-05-04 03:59:00,
2013-05-03 23:01:00,43.1,30.6,30.07,NNE,24,2.3,2.3,61,0.00,CLR,CLR,0.00,WeatherDisplay:10.37,2013-05-04 04:01:00,
2013-05-03 23:02:00,43.1,30.6,30.06,NW,325,3.5,3.5,61,0.00,CLR,CLR,0.00,WeatherDisplay:10.37,2013-05-04 04:02:00,
2013-05-03 23:04:00,43.0,30.5,30.06,NNE,13,4.0,4.0,61,0.00,CLR,CLR,0.00,WeatherDisplay:10.37,2013-05-04 04:04:00,
2013-05-03 23:05:00,43.0,30.5,30.06,North,350,4.0,4.0,61,0.00,CLR,CLR,0.00,WeatherDisplay:10.37,2013-05-04 04:05:00,
2013-05-03 23:06:00,43.0,30.9,30.06,NNW,327,3.5,3.5,62,0.00,CLR,CLR,0.00,WeatherDisplay:10.37,2013-05-04 04:06:00,
2013-05-03 23:11:00,42.9,30.4,30.06,NNW,327,8.0,8.0,61,0.00,CLR,CLR,0.00,WeatherDisplay:10.37,2013-05-04 04:11:00,
2013-05-03 23:16:00,42.8,30.3,30.06,North,5,4.0,4.0,61,0.00,CLR,CLR,0.00,WeatherDisplay:10.37,2013-05-04 04:16:00,
2013-05-03 23:21:00,42.7,29.8,30.05,NNE,22,5.8,5.8,60,0.00,CLR,CLR,0.00,WeatherDisplay:10.37,2013-05-04 04:21:00,
2013-05-03 23:26:00,42.7,29.8,30.05,NW,322,3.5,3.5,60,0.00,CLR,CLR,0.00,WeatherDisplay:10.37,2013-05-04 04:26:00,
2013-05-03 23:31:00,42.7,29.4,30.05,North,5,5.0,5.0,59,0.00,CLR,CLR,0.00,WeatherDisplay:10.37,2013-05-04 04:31:00,
2013-05-03 23:36:00,42.6,29.3,30.05,NNW,335,10.4,10.4,59,0.00,CLR,CLR,0.00,WeatherDisplay:10.37,2013-05-04 04:36:00,
2013-05-03 23:41:00,42.5,29.6,30.05,NNE,17,5.0,5.0,60,0.00,CLR,CLR,0.00,WeatherDisplay:10.37,2013-05-04 04:41:00,
2013-05-03 23:46:00,42.4,29.9,30.05,NE,40,5.8,5.8,61,0.00,CLR,CLR,0.00,WeatherDisplay:10.37,2013-05-04 04:46:00,
2013-05-03 23:51:00,42.3,29.8,30.05,NNW,347,5.0,5.0,61,0.00,CLR,CLR,0.00,WeatherDisplay:10.37,2013-05-04 04:51:00,
2013-05-03 23:56:00,42.3,30.2,30.05,NE,36,3.0,3.0,62,0.00,CLR,CLR,0.00,WeatherDisplay:10.37,2013-05-04 04:56:00,